DELTA 1 DEB, 10184

Orbit data source: Space-Track

DELTA 1 DEB, 10184 is space debris in LEO originally from a launch on Thu, 14 Jul 1977 UTC launched from the Air Force Eastern Test Range (AFETR). Debris objects in space refer to the collection of defunct objects orbiting the Earth. Examples of debris include non-operational satellites, rocket bodies, and fragments generated from explosions, collisions, or faulty payload assembly.

Loading next visibility...
Identifier
10184, 1977-065N
Orbit
LEO
Country
Flag of USUS
Related business
Manufacturer
Unknown
Mission
Spacecraft
Bus & Motor
Unknown
Mass
Unknown
Launch date (UTC)
1977-07-14 (48 years ago)
Launch vehicle
Unknown
Launch site
Air Force Eastern Test Range (AFETR)
Object type
Payload
Rocket body
Debris
Shape & HBR
Unknown shape, 1.7 m
Radar Cross Section
Large (>1 m²)

Expand to show TLE details & history
Last TLE update: 17 hours ago

TLE from 17 hours ago
0 DELTA 1 DEB
1 10184U 77065N   25297.58033628  .00001373  00000-0  31568-3 0  9999
2 10184  29.0753  39.8920 0758628  95.8134 272.9337 13.48681948335421
Epoch: 2025-10-24T13:55Z
TLE epoch observation values (Epoch: 2025-10-24T13:55:41.054Z)
Latitude
-0.00001°
Longitude
157.74773°
Altitude
1,089.475 km
Speed
7.303 km/s
True Right ascension
02h 39m 34s
True Declination
0° 00' 00"
Sunlit
Object was in full shadow at epoch
Visualization orbit readout
Latitude
Unknown
Longitude
Unknown
Altitude
Unknown
Speed
Unknown
Apparent Right ascension
Unknown
Apparent Declination
Unknown
Sunlit
N/A
Visualization observer readout
Local Sidereal Time
02:25:20
Azimuth
Unknown
Elevation
Unknown
Doppler factor
Unknown
Orbital elements
Apogee altitude
1,646.834 km
Perigee altitude
515.097 km
Semi-major axis
7,459.103 km
Eccentricity
0.07586
Inclination
29.0753°
RAAN
39.892°
Arg. of periapsis
95.8134°
True anomaly
264.24298°
Mean anomaly
272.9337°
Eccentric anomaly
268.5884°
Mean motion
3.3691 °/min
Orbital period
106.85 mins
BSTAR
0.00031568
Loading maneuver chart data...
Computing Atmospheric mass density...

Documentation

Showing up to 5 results
|